This demonstration page uses our WeatherBlox Daily Observations layout. Learn more.

Left ArrowRight Arrow

40.97296, -117.73568

Hourly Observations for August 18, 2015

Temp ( °F °C ) Dew Point ( °F °C ) Humidity (%) Winds ( mph kmh ) Pressure ( in mb ) Visibility ( mi km ) Precip ( " mm )
12:56 am 00:56 Clear 65 18.3 23 -5 20 20 NNW 8 13 29.93 1013 10 16 0.00 0.00
1:56 am 01:56 Clear 57 13.9 22 -5.6 26 26 Calm 29.94 1014 10 16 0.00 0.00
2:56 am 02:56 Clear 49 9.4 27 -2.8 43 43 SE 6 9 29.96 1015 10 16 0.00 0.00
3:56 am 03:56 Clear 47 8.3 25 -3.9 42 42 SE 8 13 29.96 1015 10 16 0.00 0.00
4:56 am 04:56 Clear 43 6.1 22 -5.6 43 43 Calm 29.98 1015 10 16 0.00 0.00
5:56 am 05:56 Clear 44 6.7 25 -3.9 47 47 SE 5 7 29.99 1016 10 16 0.00 0.00
6:56 am 06:56 Sunny 47 8.3 26 -3.3 44 44 Calm 30.00 1016 10 16 0.00 0.00
7:56 am 07:56 Sunny 57 13.9 25 -3.9 29 29 SSE 3 6 30.01 1016 10 16 0.00 0.00
9:56 am 09:56 Sunny 76 24.4 24 -4.4 14 14 N 6 9 30.01 1016 10 16 0.00 0.00
10:56 am 10:56 Sunny 81 27.2 22 -5.6 11 11 N 5 7 29.99 1016 10 16 0.00 0.00
11:56 am 11:56 Sunny 85 29.4 25 -3.9 11 11 VRB 5 7 29.96 1015 10 16 0.00 0.00
12:56 pm 12:56 Sunny 87 30.6 25 -3.9 10 10 WNW 12 19 29.93 1014 9 14 0.00 0.00
1:56 pm 13:56 Sunny 88 31.1 26 -3.3 10 10 WNW 7 11 29.92 1013 10 16 0.00 0.00
2:56 pm 14:56 Sunny 90 32.2 26 -3.3 10 10 NW 8 13 29.91 1013 10 16 0.00 0.00
3:56 pm 15:56 Sunny 92 33.3 23 -5 8 8 W 9 15 29.89 1012 10 16 0.00 0.00
4:56 pm 16:56 Sunny 90 32.2 24 -4.4 9 9 SW 6 9 29.89 1012 10 16 0.00 0.00
5:56 pm 17:56 Sunny 90 32.2 24 -4.4 9 9 NNW 8 13 29.88 1012 10 16 0.00 0.00
6:56 pm 18:56 Sunny 88 31.1 24 -4.4 10 10 NW 5 7 29.87 1012 10 16 0.00 0.00
7:56 pm 19:56 Clear 78 25.6 25 -3.9 14 14 NNW 7 11 29.88 1012 9 14 0.00 0.00
8:56 pm 20:56 Clear 69 20.6 26 -3.3 20 20 Calm 29.89 1012 9 14 0.00 0.00
9:56 pm 21:56 Clear 61 16.1 24 -4.4 24 24 WSW 5 7 29.91 1013 8 13 0.00 0.00
10:56 pm 22:56 Clear 67 19.4 27 -2.8 22 22 N 8 13 29.89 1012 9 14 0.00 0.00
11:56 pm 23:56 Clear 63 17.2 28 -2.2 27 27 Calm 29.90 1012 10 16 0.00 0.00

Powered by AerisWeather